KC5DAQ-2 Weather Reports


time (UTC)temp
C
wind
direction
speed
KPH
gust
KPH
rain 1hr
cm
rain 24hr
cm
rain mn
cm
humidity
%
barometer
mb
20260502152332 16 79 0.0 9.7 0.00 0.00 0.00 97 1013.0
20260502152233 16 78 0.0 9.7 0.00 0.00 0.00 97 1012.9
20260502152133 16 173 1.6 9.7 0.00 0.00 0.00 98 1013.0
20260502152032 16 90 3.2 9.7 0.00 0.00 0.00 98 1013.0
20260502151931 16 127 1.6 9.7 0.00 0.00 0.00 99 1012.9
20260502151832 16 106 1.6 9.7 0.00 0.00 0.00 99 1012.9
20260502151730 16 69 1.6 9.7 0.00 0.00 0.00 99 1013.0
20260502151627 16 135 3.2 9.7 0.00 0.00 0.00 99 1013.0
20260502151522 16 44 4.8 9.7 0.00 0.00 0.00 99 1013.0
20260502151419 15 93 3.2 14.5 0.00 0.00 0.00 100 1013.0
20260502151313 15 154 3.2 14.5 0.00 0.00 0.00 100 1013.0
20260502151203 15 93 3.2 14.5 0.00 0.00 0.00 100 1013.0
20260502151103 15 21 0.0 14.5 0.00 0.00 0.00 100 1013.0
20260502151002 15 0 1.6 14.5 0.00 0.00 0.00 100 1013.0
20260502150903 15 27 3.2 14.5 0.00 0.00 0.00 100 1012.9
20260502150803 15 89 4.8 14.5 0.00 0.00 0.00 100 1013.0
20260502150703 15 111 4.8 14.5 0.00 0.00 0.00 100 1013.1
20260502150602 15 97 1.6 14.5 0.00 0.00 0.00 100 1013.0
20260502150502 15 100 1.6 14.5 0.00 0.00 0.00 100 1013.1
20260502150402 15 0 1.6 9.7 0.00 0.00 0.00 100 1013.0
20260502150303 15 34 3.2 9.7 0.00 0.00 0.00 100 1013.1
20260502150204 15 63 3.2 9.7 0.00 0.00 0.00 100 1013.1
20260502150108 15 103 1.6 9.7 0.00 0.00 0.00 100 1013.0
20260502130702 10 38 0.0 0.0 0.00 0.00 0.00 100 1011.9
20260502130603 10 39 0.0 0.0 0.00 0.00 0.00 100 1012.0
20260502130503 10 39 0.0 0.0 0.00 0.00 0.00 100 1012.0
20260502130402 10 39 0.0 0.0 0.00 0.00 0.00 100 1011.9
20260502130303 10 39 0.0 0.0 0.00 0.00 0.00 100 1012.0
20260502130202 10 39 0.0 0.0 0.00 0.00 0.00 100 1012.0
20260502130103 10 39 0.0 0.0 0.00 0.00 0.00 100 1012.0
20260502123802 10 97 0.0 0.0 0.00 0.03 0.00 100 1011.5
20260502123702 10 97 0.0 0.0 0.00 0.03 0.00 100 1011.6
20260502123602 10 97 0.0 0.0 0.00 0.03 0.00 100 1011.5
20260502123502 10 97 0.0 0.0 0.00 0.03 0.00 100 1011.5
20260502123403 10 97 0.0 0.0 0.00 0.03 0.00 100 1011.5
20260502123303 10 97 0.0 0.0 0.00 0.03 0.00 100 1011.5
20260502123203 10 97 0.0 0.0 0.00 0.03 0.00 100 1011.5
20260502123110 10 97 0.0 0.0 0.00 0.03 0.00 100 1011.5
20260502123002 10 97 0.0 0.0 0.00 0.03 0.00 100 1011.4
20260502122902 10 97 0.0 0.0 0.00 0.03 0.00 100 1011.4
20260502122802 10 97 0.0 0.0 0.00 0.03 0.00 100 1011.4
20260502122702 10 97 0.0 0.0 0.00 0.03 0.00 100 1011.4
20260502122557 10 97 0.0 0.0 0.00 0.03 0.00 100 1011.4
20260502122453 10 97 0.0 0.0 0.00 0.03 0.00 100 1011.3
20260502122346 10 97 0.0 0.0 0.00 0.03 0.00 100 1011.3
20260502122242 10 97 0.0 0.0 0.00 0.03 0.00 100 1011.3
20260502122132 10 97 0.0 0.0 0.00 0.03 0.00 100 1011.3
20260502122031 10 97 0.0 0.0 0.00 0.03 0.00 100 1011.3
20260502121931 10 97 0.0 0.0 0.00 0.03 0.00 100 1011.3
20260502121831 10 97 0.0 0.0 0.00 0.03 0.00 100 1011.3
20260502121731 10 97 0.0 0.0 0.00 0.03 0.00 100 1011.3
20260502121632 10 97 0.0 0.0 0.00 0.03 0.00 100 1011.2
20260502121531 10 97 0.0 0.0 0.00 0.03 0.00 100 1011.2
20260502121433 10 97 0.0 0.0 0.00 0.03 0.00 100 1011.1
20260502121331 10 97 0.0 0.0 0.00 0.03 0.00 100 1011.2
20260502121231 10 97 0.0 0.0 0.00 0.03 0.00 100 1011.1
20260502121131 10 97 0.0 0.0 0.00 0.03 0.00 100 1011.3
20260502121032 10 97 0.0 0.0 0.00 0.03 0.00 100 1011.2
20260502120931 10 97 0.0 0.0 0.00 0.03 0.00 100 1011.2
20260502120832 10 97 0.0 0.0 0.00 0.03 0.00 100 1011.2
20260502120731 10 97 0.0 0.0 0.00 0.03 0.00 100 1011.1
20260502120633 10 97 0.0 0.0 0.00 0.03 0.00 100 1011.1
20260502120532 10 97 0.0 0.0 0.00 0.03 0.00 100 1011.2
20260502120430 10 97 0.0 0.0 0.00 0.03 0.00 100 1011.1
20260502120331 10 97 0.0 0.0 0.00 0.03 0.00 100 1011.1
20260502120230 10 97 0.0 0.0 0.00 0.03 0.00 100 1011.1
20260502120128 10 97 0.0 0.0 0.00 0.03 0.00 100 1011.1
20260502115927 10 97 0.0 0.0 0.00 0.03 0.00 100 1011.0
20260502115827 10 97 0.0 0.0 0.00 0.03 0.00 100 1011.1
20260502115729 10 97 0.0 0.0 0.00 0.03 0.00 100 1011.1
20260502115627 10 97 0.0 0.0 0.00 0.03 0.00 100 1011.0
20260502115528 10 97 0.0 0.0 0.00 0.03 0.00 100 1010.9
20260502115428 10 97 0.0 0.0 0.00 0.03 0.00 100 1011.0
20260502115329 10 97 0.0 0.0 0.00 0.03 0.00 100 1011.0
20260502115228 10 97 0.0 0.0 0.00 0.03 0.00 100 1010.9
20260502115129 10 97 0.0 0.0 0.00 0.03 0.00 100 1010.9
20260502115029 10 97 0.0 0.0 0.00 0.03 0.00 100 1010.9
20260502114928 10 97 0.0 0.0 0.00 0.03 0.00 100 1010.9
20260502114828 10 97 0.0 0.0 0.00 0.03 0.00 100 1010.8
20260502114727 10 97 0.0 0.0 0.00 0.03 0.00 100 1010.8
20260502114627 10 97 0.0 0.0 0.00 0.03 0.00 100 1010.9
20260502114528 10 97 0.0 0.0 0.00 0.03 0.00 100 1010.9
20260502114427 10 97 0.0 0.0 0.00 0.03 0.00 100 1010.9
20260502114327 10 97 0.0 0.0 0.00 0.03 0.00 100 1010.9
20260502114228 10 97 0.0 0.0 0.00 0.03 0.00 100 1010.9
20260502114130 10 97 0.0 0.0 0.00 0.03 0.00 100 1010.9
20260502114028 10 97 0.0 0.0 0.00 0.03 0.00 100 1010.9
20260502113928 10 97 0.0 0.0 0.00 0.03 0.00 100 1010.8
20260502113826 10 97 0.0 0.0 0.00 0.03 0.00 100 1010.8
20260502113727 10 97 0.0 0.0 0.00 0.03 0.00 100 1010.8
20260502113629 10 97 0.0 0.0 0.00 0.03 0.00 100 1010.8
20260502113527 10 97 0.0 0.0 0.00 0.03 0.00 100 1010.8
20260502113428 10 97 0.0 0.0 0.00 0.03 0.00 100 1010.8
20260502113328 10 97 0.0 0.0 0.00 0.03 0.00 100 1010.7
20260502113227 10 97 0.0 0.0 0.00 0.03 0.00 100 1010.7
20260502113128 10 97 0.0 0.0 0.00 0.03 0.00 100 1010.7
20260502113027 10 97 0.0 0.0 0.00 0.03 0.00 100 1010.6
20260502112928 10 97 0.0 0.0 0.00 0.03 0.00 100 1010.6
20260502112828 10 97 0.0 0.0 0.00 0.03 0.00 100 1010.7
20260502112726 10 97 0.0 0.0 0.00 0.03 0.00 100 1010.6
20260502112628 10 97 0.0 0.0 0.00 0.03 0.00 100 1010.5
20260502112526 10 97 0.0 0.0 0.00 0.03 0.00 100 1010.6
20260502112427 10 97 0.0 0.0 0.00 0.03 0.00 100 1010.5
20260502112326 10 97 0.0 0.0 0.00 0.03 0.00 100 1010.6
20260502112221 10 97 0.0 0.0 0.00 0.03 0.00 100 1010.5
20260502112114 10 97 0.0 0.0 0.00 0.03 0.00 100 1010.5
20260502112011 10 97 0.0 0.0 0.00 0.03 0.00 100 1010.6
20260502111905 10 97 0.0 0.0 0.00 0.03 0.00 100 1010.5
20260502111805 10 97 0.0 0.0 0.00 0.03 0.00 100 1010.5
20260502111703 10 97 0.0 0.0 0.00 0.03 0.00 100 1010.5
20260502111603 10 97 0.0 0.0 0.00 0.03 0.00 100 1010.5
20260502111504 10 97 0.0 0.0 0.00 0.03 0.00 100 1010.4
20260502111402 10 97 0.0 0.0 0.00 0.03 0.00 100 1010.4
20260502111302 10 97 0.0 0.0 0.00 0.03 0.00 100 1010.4
20260502111203 10 97 0.0 0.0 0.00 0.03 0.00 100 1010.4
20260502111104 10 97 0.0 0.0 0.00 0.03 0.00 100 1010.4
20260502111003 10 97 0.0 0.0 0.00 0.03 0.00 100 1010.4
20260502110903 10 97 0.0 0.0 0.00 0.03 0.00 100 1010.4
20260502110803 10 97 0.0 0.0 0.00 0.03 0.00 100 1010.4
20260502110702 10 97 0.0 0.0 0.00 0.03 0.00 100 1010.3
20260502110603 10 97 0.0 0.0 0.00 0.03 0.00 100 1010.4
20260502110503 10 97 0.0 0.0 0.00 0.03 0.00 100 1010.3
20260502110403 10 97 0.0 0.0 0.00 0.03 0.00 100 1010.3
20260502110303 10 97 0.0 0.0 0.00 0.03 0.00 100 1010.3
20260502110203 10 97 0.0 0.0 0.00 0.03 0.00 100 1010.4
20260502110103 10 97 0.0 0.0 0.00 0.03 0.00 100 1010.3
20260502110009 10 97 0.0 0.0 0.00 0.03 0.00 100 1010.3
20260502105903 10 97 0.0 0.0 0.00 0.03 0.00 100 1010.2
20260502105802 10 97 0.0 0.0 0.00 0.03 0.00 100 1010.2
20260502105659 10 97 0.0 0.0 0.00 0.03 0.00 100 1010.2
20260502105555 10 97 0.0 0.0 0.00 0.03 0.00 100 1010.2
20260502105452 10 97 0.0 0.0 0.00 0.03 0.00 100 1010.2
20260502105346 10 97 0.0 0.0 0.00 0.03 0.00 100 1010.2
20260502105239 10 97 0.0 0.0 0.00 0.03 0.00 100 1010.2
20260502105133 10 97 0.0 0.0 0.00 0.03 0.00 100 1010.1
20260502105033 10 97 0.0 0.0 0.00 0.03 0.00 100 1010.2
20260502104928 10 97 0.0 0.0 0.00 0.03 0.00 100 1010.2
20260502104827 10 97 0.0 0.0 0.00 0.03 0.00 100 1010.2
20260502104727 10 97 0.0 0.0 0.00 0.03 0.00 100 1010.3
20260502104627 10 97 0.0 0.0 0.00 0.03 0.00 100 1010.3
20260502104527 10 97 0.0 0.0 0.00 0.03 0.00 100 1010.3
20260502104426 10 97 0.0 0.0 0.00 0.03 0.00 100 1010.3
20260502104330 10 97 0.0 0.0 0.00 0.03 0.00 100 1010.3
20260502104226 10 97 0.0 0.0 0.00 0.03 0.00 100 1010.3
20260502104126 10 97 0.0 0.0 0.00 0.03 0.00 100 1010.2
20260502104026 10 97 0.0 0.0 0.00 0.03 0.00 100 1010.2
20260502103925 10 97 0.0 0.0 0.00 0.03 0.00 100 1010.2
20260502103826 10 97 0.0 0.0 0.00 0.03 0.00 100 1010.2
20260502103726 10 97 0.0 0.0 0.00 0.03 0.00 100 1010.2
20260502103625 11 97 0.0 0.0 0.00 0.03 0.00 100 1010.3
20260502103527 11 97 0.0 0.0 0.00 0.03 0.00 100 1010.2
20260502103425 10 97 0.0 0.0 0.00 0.03 0.00 100 1010.3
20260502103325 11 97 0.0 0.0 0.00 0.03 0.00 100 1010.2
20260502103225 11 97 0.0 0.0 0.00 0.03 0.00 100 1010.2
20260502103126 11 97 0.0 0.0 0.00 0.03 0.00 100 1010.2
20260502103025 11 97 0.0 0.0 0.00 0.03 0.00 100 1010.1
20260502102926 11 97 0.0 0.0 0.00 0.03 0.00 100 1010.2
20260502102825 11 97 0.0 0.0 0.00 0.03 0.00 100 1010.1
20260502102727 11 97 0.0 0.0 0.00 0.03 0.00 100 1010.1
20260502102626 11 97 0.0 0.0 0.00 0.03 0.00 100 1010.1
20260502102525 11 97 0.0 1.6 0.00 0.03 0.00 100 1010.1
20260502102427 11 97 0.0 1.6 0.00 0.03 0.00 100 1010.1
20260502102326 11 97 0.0 1.6 0.00 0.03 0.00 100 1010.1
20260502102225 11 97 0.0 1.6 0.00 0.03 0.00 100 1010.0
20260502102125 11 97 0.0 1.6 0.00 0.03 0.00 100 1010.1
20260502102025 11 97 0.0 1.6 0.00 0.03 0.00 100 1010.0
20260502101925 11 97 0.0 1.6 0.00 0.03 0.00 100 1010.1
20260502101839 11 97 0.0 1.6 0.00 0.03 0.00 100 1010.0
20260502101726 11 97 0.0 1.6 0.00 0.03 0.00 100 1010.0
20260502101626 11 97 0.0 1.6 0.00 0.03 0.00 100 1010.0
20260502101527 11 97 0.0 1.6 0.00 0.03 0.00 100 1009.9
20260502101425 11 97 0.0 1.6 0.00 0.03 0.00 100 1009.9
20260502101325 11 97 0.0 1.6 0.00 0.03 0.00 100 1010.0
20260502101226 11 97 0.0 1.6 0.00 0.03 0.00 100 1009.9
20260502101126 11 99 0.0 1.6 0.00 0.03 0.00 100 1009.9
20260502101028 11 99 0.0 1.6 0.00 0.03 0.00 100 1009.9
20260502100923 11 69 0.0 1.6 0.00 0.03 0.00 100 1009.9
20260502100822 11 69 0.0 1.6 0.00 0.03 0.00 100 1009.9
20260502100719 11 69 0.0 1.6 0.00 0.03 0.00 100 1009.9
20260502100615 11 69 0.0 1.6 0.00 0.03 0.00 100 1009.9
20260502100513 11 69 0.0 1.6 0.00 0.03 0.00 100 1009.9
20260502100410 11 69 0.0 1.6 0.00 0.03 0.00 100 1009.8
20260502100305 11 69 0.0 1.6 0.00 0.03 0.00 100 1009.9
20260502100205 11 69 1.6 1.6 0.00 0.03 0.00 100 1009.9
20260502091503 11 47 0.0 1.6 0.00 0.03 0.00 100 1009.1
20260502091401 11 47 0.0 1.6 0.00 0.03 0.00 100 1009.0
20260502091303 11 47 0.0 1.6 0.00 0.03 0.00 100 1009.0
20260502091202 11 47 0.0 1.6 0.00 0.03 0.00 100 1008.9
20260502091058 11 47 0.0 1.6 0.00 0.03 0.00 100 1009.0
20260502090957 11 47 0.0 1.6 0.00 0.03 0.00 100 1009.0
20260502090849 11 47 0.0 1.6 0.00 0.03 0.00 100 1009.0
20260502090745 11 47 0.0 1.6 0.00 0.03 0.00 100 1009.0
20260502090643 11 47 0.0 1.6 0.00 0.03 0.00 100 1008.9
20260502090532 11 47 0.0 1.6 0.00 0.03 0.00 100 1008.9
20260502090432 11 47 0.0 1.6 0.00 0.03 0.00 100 1008.8
20260502090334 11 45 0.0 1.6 0.00 0.03 0.00 100 1008.8
20260502090233 11 45 0.0 3.2 0.00 0.03 0.00 100 1008.8
20260502090129 11 45 0.0 3.2 0.00 0.03 0.00 100 1008.8
20260502071521 12 65 0.0 3.2 0.00 0.03 0.00 100 1008.5
20260502071421 12 65 0.0 3.2 0.00 0.03 0.00 100 1008.6
20260502071321 12 65 0.0 3.2 0.00 0.03 0.00 100 1008.5
20260502071222 12 65 0.0 3.2 0.00 0.03 0.00 100 1008.5
20260502071122 12 65 0.0 3.2 0.00 0.03 0.00 100 1008.5
20260502071020 12 65 0.0 3.2 0.00 0.03 0.00 100 1008.5
20260502070922 12 65 0.0 3.2 0.00 0.03 0.00 100 1008.5
20260502070820 12 65 0.0 3.2 0.00 0.03 0.00 100 1008.6
20260502070722 12 65 1.6 3.2 0.00 0.03 0.00 100 1008.5
20260502070622 12 65 0.0 3.2 0.00 0.03 0.00 100 1008.6
20260502070522 12 59 0.0 3.2 0.00 0.03 0.00 100 1008.5
20260502070420 12 59 1.6 3.2 0.00 0.03 0.00 100 1008.6
20260502070322 12 58 0.0 3.2 0.00 0.03 0.00 100 1008.6
20260502070223 12 59 0.0 3.2 0.00 0.03 0.00 100 1008.6
20260502070120 12 59 1.6 3.2 0.00 0.03 0.00 100 1008.7
20260502070021 12 59 1.6 3.2 0.00 0.03 0.00 100 1008.7
20260502065932 12 30 1.6 3.2 0.00 0.03 0.00 100 1008.7
20260502065820 12 45 0.0 3.2 0.00 0.03 0.00 100 1008.7
20260502065721 12 54 0.0 3.2 0.00 0.03 0.00 100 1008.6
20260502065622 12 52 0.0 3.2 0.00 0.03 0.00 100 1008.7
20260502065520 12 52 1.6 3.2 0.00 0.03 0.00 100 1008.7
20260502065420 12 52 1.6 3.2 0.00 0.03 0.00 100 1008.7
20260502065321 12 20 0.0 3.2 0.00 0.03 0.00 100 1008.7
20260502065220 12 341 1.6 3.2 0.00 0.03 0.00 100 1008.7
20260502065121 12 45 0.0 3.2 0.00 0.03 0.00 100 1008.6
20260502065020 12 39 0.0 3.2 0.00 0.03 0.00 100 1008.6
20260502064920 12 39 1.6 4.8 0.00 0.03 0.00 100 1008.6
20260502064820 12 39 1.6 4.8 0.00 0.03 0.00 100 1008.6
20260502064722 12 39 1.6 4.8 0.00 0.03 0.00 100 1008.6
20260502064620 12 35 0.0 4.8 0.00 0.03 0.00 100 1008.6
20260502064521 12 32 0.0 4.8 0.00 0.03 0.00 100 1008.6
20260502064421 12 31 0.0 4.8 0.00 0.03 0.00 100 1008.7
20260502064321 12 31 1.6 4.8 0.00 0.03 0.00 100 1008.6
20260502064221 12 37 1.6 4.8 0.00 0.03 0.00 100 1008.7
20260502064120 12 83 3.2 4.8 0.00 0.03 0.00 100 1008.7
20260502064020 12 55 3.2 4.8 0.00 0.03 0.00 100 1008.7
20260502063921 12 106 0.0 4.8 0.00 0.03 0.00 100 1008.7
20260502063821 12 106 0.0 4.8 0.00 0.03 0.00 100 1008.6
20260502063720 12 106 0.0 4.8 0.00 0.03 0.00 100 1008.7
20260502063622 12 106 0.0 4.8 0.00 0.03 0.00 100 1008.6
20260502063521 12 106 1.6 4.8 0.00 0.03 0.00 100 1008.6
20260502063420 12 103 1.6 4.8 0.00 0.03 0.00 100 1008.6
20260502063316 12 103 3.2 4.8 0.00 0.03 0.00 100 1008.5
20260502063211 12 23 1.6 3.2 0.00 0.03 0.00 100 1008.6
20260502063109 12 56 0.0 3.2 0.00 0.03 0.00 100 1008.5
20260502063004 12 16 1.6 3.2 0.00 0.03 0.00 100 1008.4
20260502062903 12 16 1.6 3.2 0.00 0.03 0.00 100 1008.4
20260502062803 12 17 0.0 3.2 0.00 0.03 0.00 100 1008.4
20260502062702 12 16 0.0 3.2 0.00 0.03 0.00 100 1008.4
20260502062602 12 16 1.6 3.2 0.00 0.03 0.00 100 1008.3
20260502062503 12 16 1.6 3.2 0.00 0.03 0.00 100 1008.3
20260502062402 12 82 0.0 3.2 0.00 0.03 0.00 100 1008.3
20260502062306 12 82 1.6 3.2 0.00 0.03 0.00 100 1008.2
20260502062202 12 82 1.6 3.2 0.00 0.03 0.00 100 1008.3
20260502062102 12 68 0.0 3.2 0.00 0.03 0.00 100 1008.3
20260502062003 12 90 0.0 3.2 0.00 0.03 0.00 100 1008.2
20260502061903 12 92 0.0 3.2 0.00 0.03 0.00 100 1008.3
20260502061803 12 90 0.0 3.2 0.00 0.03 0.00 100 1008.3
20260502061702 12 90 1.6 4.8 0.00 0.03 0.00 100 1008.3
20260502061603 12 90 0.0 4.8 0.00 0.03 0.00 100 1008.3
20260502061502 12 85 0.0 4.8 0.00 0.03 0.00 100 1008.2
20260502061403 12 82 1.6 4.8 0.00 0.03 0.00 100 1008.2
20260502061304 12 82 1.6 4.8 0.00 0.03 0.00 100 1008.3
20260502061204 12 110 1.6 4.8 0.00 0.03 0.00 100 1008.3
20260502061104 12 111 1.6 4.8 0.00 0.03 0.00 100 1008.4
20260502061008 12 120 0.0 4.8 0.00 0.03 0.00 100 1008.3
20260502060904 12 120 1.6 4.8 0.00 0.03 0.00 100 1008.4
20260502060802 12 120 3.2 4.8 0.00 0.03 0.00 100 1008.4
20260502060703 12 89 3.2 4.8 0.00 0.03 0.00 100 1008.3
20260502060604 12 73 3.2 4.8 0.00 0.03 0.00 100 1008.3
20260502060504 12 0 1.6 4.8 0.00 0.03 0.00 100 1008.3
20260502060404 12 27 1.6 4.8 0.00 0.03 0.00 100 1008.3
20260502060303 12 27 3.2 4.8 0.00 0.03 0.00 100 1008.3
20260502060202 12 45 3.2 4.8 0.00 0.03 0.00 100 1008.4
20260502060003 12 63 1.6 4.8 0.00 0.03 0.00 100 1008.4
20260502055901 12 58 1.6 4.8 0.00 0.03 0.00 100 1008.4
20260502055802 12 82 1.6 4.8 0.00 0.03 0.00 100 1008.4
20260502055703 12 96 1.6 4.8 0.00 0.03 0.00 100 1008.4
20260502055602 12 96 1.6 4.8 0.00 0.03 0.00 100 1008.4
20260502055504 12 93 1.6 4.8 0.00 0.03 0.00 100 1008.4
20260502055403 12 93 1.6 4.8 0.00 0.03 0.00 100 1008.4
20260502055305 12 102 0.0 4.8 0.00 0.03 0.00 100 1008.4
20260502055202 12 3 0.0 4.8 0.00 0.03 0.00 100 1008.4
20260502055103 12 3 0.0 4.8 0.00 0.03 0.00 100 1008.4
20260502055003 12 32 1.6 4.8 0.00 0.03 0.00 100 1008.4
20260502054903 12 32 1.6 6.4 0.00 0.03 0.00 100 1008.4
20260502054802 12 61 0.0 6.4 0.00 0.03 0.00 100 1008.5
20260502054703 12 135 0.0 6.4 0.00 0.03 0.00 100 1008.4
20260502054603 12 135 1.6 6.4 0.00 0.03 0.00 100 1008.5
20260502054503 12 35 1.6 6.4 0.00 0.03 0.00 100 1008.6
20260502054404 12 30 1.6 6.4 0.00 0.03 0.00 100 1008.5
20260502054303 12 14 1.6 6.4 0.00 0.03 0.00 100 1008.6
20260502054203 12 76 3.2 6.4 0.00 0.03 0.00 100 1008.5
20260502054102 12 76 3.2 6.4 0.00 0.03 0.00 100 1008.5
20260502054002 12 87 1.6 6.4 0.00 0.03 0.00 100 1008.6
20260502053903 12 0 0.0 6.4 0.00 0.03 0.00 100 1008.5
20260502053803 12 0 1.6 6.4 0.00 0.03 0.00 100 1008.6
20260502053703 12 0 1.6 6.4 0.00 0.03 0.00 100 1008.5
20260502053603 12 330 0.0 6.4 0.00 0.03 0.00 100 1008.5
20260502053503 12 6 0.0 6.4 0.00 0.03 0.00 100 1008.4
20260502053405 12 6 1.6 6.4 0.00 0.03 0.00 100 1008.5
20260502053303 12 6 3.2 11.3 0.00 0.03 0.00 100 1008.5
20260502053204 12 42 1.6 11.3 0.00 0.03 0.00 100 1008.6
20260502053104 12 86 3.2 11.3 0.00 0.03 0.00 100 1008.5
20260502053005 12 86 1.6 11.3 0.00 0.03 0.00 100 1008.4
20260502052905 12 104 0.0 11.3 0.00 0.03 0.00 100 1008.4
20260502052804 12 109 1.6 11.3 0.00 0.03 0.00 100 1008.4
20260502052703 12 109 3.2 11.3 0.00 0.03 0.00 100 1008.4
20260502052603 12 125 3.2 11.3 0.00 0.03 0.00 100 1008.4
20260502052503 12 87 3.2 11.3 0.00 0.03 0.00 100 1008.5
20260502052403 12 353 3.2 11.3 0.00 0.03 0.00 100 1008.5
20260502052305 12 51 3.2 9.7 0.00 0.03 0.00 100 1008.4
20260502052203 12 331 3.2 9.7 0.00 0.03 0.00 100 1008.5
20260502052102 12 72 4.8 9.7 0.00 0.03 0.00 100 1008.4
20260502052003 -17 68 6.4 9.7 0.00 0.03 0.00 1008.4
20260502051902 -17 56 6.4 9.7 0.00 0.03 0.00 1008.4
20260502051803 -17 0.0 0.0 0.00 0.03 0.00 1008.3
20260502051704 -17 0.0 0.0 0.00 0.03 0.00 1008.4
20260502051603 -17 0.0 0.0 0.00 0.03 0.00 1008.3
20260502051503 -17 0.0 0.0 0.00 0.03 0.00 1008.4
20260502051404 -17 0.0 0.0 0.00 0.03 0.00 1008.3
20260502051304 -17 0.0 0.0 0.00 0.03 0.00 1008.4
20260502051204 -17 86 8.0 8.0 0.00 0.03 0.00 1008.3
20260502051104 -17 86 8.0 8.0 0.00 0.03 0.00 1008.4
20260502050933 12 86 8.0 8.0 0.00 0.03 0.00 100 1008.3
20260502050833 12 86 8.0 8.0 0.00 0.03 0.00 100 1008.3
20260502050732 12 86 8.0 9.7 0.00 0.03 0.00 100 1008.3
20260502050614 12 86 8.0 9.7 0.00 0.03 0.00 100 1008.3
20260502050514 12 86 8.0 9.7 0.00 0.03 0.00 100 1008.3
20260502050418 12 86 8.0 9.7 0.00 0.03 0.00 100 1008.3
20260502050314 12 86 8.0 9.7 0.00 0.03 0.00 100 1008.3
20260502050213 12 86 8.0 9.7 0.00 0.03 0.00 100 1008.3
20260502050114 12 86 4.8 9.7 0.00 0.03 0.00 100 1008.3
20260502050013 12 63 3.2 9.7 0.00 0.03 0.00 100 1008.3
20260502045913 12 79 3.2 9.7 0.00 0.03 0.00 100 1008.3
20260502045813 12 79 3.2 9.7 0.00 0.03 0.00 100 1008.3
20260502045713 12 56 0.0 4.8 0.00 0.03 0.00 100 1008.3
20260502045612 12 56 1.6 4.8 0.00 0.03 0.00 100 1008.3
20260502045513 12 56 1.6 8.0 0.00 0.03 0.00 100 1008.4
20260502045412 12 54 1.6 8.0 0.00 0.03 0.00 100 1008.4
20260502045313 12 54 1.6 8.0 0.00 0.03 0.00 100 1008.3
20260502045213 12 161 0.0 8.0 0.00 0.03 0.00 100 1008.3
20260502045112 12 161 0.0 8.0 0.00 0.03 0.00 100 1008.3
20260502045014 12 161 0.0 8.0 0.00 0.03 0.00 100 1008.3
20260502044915 12 161 1.6 8.0 0.00 0.03 0.00 100 1008.3
20260502044814 12 100 0.0 8.0 0.00 0.03 0.00 100 1008.3
20260502044712 12 123 3.2 8.0 0.00 0.03 0.00 100 1008.3
20260502044612 12 123 3.2 8.0 0.00 0.03 0.00 100 1008.3
20260502044512 12 89 3.2 8.0 0.00 0.03 0.00 100 1008.4
20260502044414 12 87 1.6 8.0 0.00 0.03 0.00 100 1008.3
20260502044313 12 80 1.6 8.0 0.00 0.03 0.00 100 1008.2
20260502044213 12 75 3.2 8.0 0.00 0.03 0.00 100 1008.3
20260502044115 12 0 3.2 8.0 0.00 0.03 0.00 100 1008.3
20260502044013 12 113 3.2 11.3 0.00 0.03 0.00 100 1008.3
20260502043912 12 94 3.2 11.3 0.00 0.03 0.00 100 1008.2
20260502043811 12 35 1.6 11.3 0.00 0.03 0.00 100 1008.2
20260502043712 12 87 1.6 11.3 0.00 0.03 0.00 100 1008.2
20260502043613 12 72 3.2 11.3 0.00 0.03 0.00 100 1008.2
20260502043512 12 87 1.6 11.3 0.00 0.03 0.00 100 1008.2
20260502043412 12 93 1.6 11.3 0.00 0.03 0.00 100 1008.3
20260502043313 12 93 3.2 11.3 0.00 0.03 0.00 100 1008.2
20260502043212 12 99 6.4 11.3 0.00 0.03 0.00 100 1008.2
20260502043114 12 28 4.8 11.3 0.00 0.03 0.00 100 1008.3
20260502043012 12 35 3.2 9.7 0.00 0.03 0.00 100 1008.2
20260502042913 12 86 4.8 9.7 0.00 0.03 0.00 100 1008.3
20260502042813 12 63 4.8 9.7 0.00 0.03 0.00 100 1008.2
20260502042713 12 76 4.8 6.4 0.00 0.03 0.00 100 1008.2
20260502042612 12 182 3.2 6.4 0.00 0.03 0.00 100 1008.2
20260502042512 12 135 3.2 6.4 0.00 0.03 0.00 100 1008.2
20260502042412 12 94 3.2 8.0 0.00 0.03 0.00 100 1008.1
20260502042314 12 106 3.2 8.0 0.00 0.03 0.00 100 1008.1
20260502042211 12 93 3.2 9.7 0.00 0.03 0.00 100 1008.1
20260502042112 12 100 3.2 9.7 0.00 0.03 0.00 100 1008.1
20260502042013 12 27 3.2 9.7 0.00 0.03 0.00 100 1008.2
20260502041911 12 61 1.6 9.7 0.00 0.03 0.00 100 1008.1
20260502041812 12 66 1.6 9.7 0.00 0.03 0.00 100 1008.1
20260502041713 12 66 1.6 9.7 0.00 0.03 0.00 100 1008.1
20260502041612 12 51 3.2 9.7 0.00 0.03 0.00 100 1008.1
20260502041511 12 7 3.2 9.7 0.00 0.03 0.00 100 1008.1
20260502041413 12 76 4.8 9.7 0.00 0.03 0.00 100 1008.0
20260502041311 12 96 3.2 9.7 0.00 0.03 0.00 100 1008.0
20260502041212 12 97 1.6 6.4 0.00 0.03 0.00 100 1008.0
20260502041113 12 99 3.2 6.4 0.00 0.03 0.00 100 1008.1
20260502041011 12 89 3.2 6.4 0.00 0.03 0.00 100 1008.1
20260502040911 12 87 1.6 6.4 0.00 0.03 0.00 100 1008.1
20260502040811 12 41 1.6 6.4 0.00 0.03 0.00 100 1008.0
20260502040711 12 97 1.6 6.4 0.00 0.03 0.00 100 1008.0
20260502040616 12 94 1.6 6.4 0.00 0.03 0.00 100 1008.1
20260502040511 12 94 1.6 6.4 0.00 0.03 0.00 100 1008.0
20260502040411 12 87 1.6 6.4 0.00 0.03 0.00 100 1008.1
20260502040311 12 86 1.6 9.7 0.00 0.03 0.00 100 1008.1
20260502040210 12 68 0.0 16.1 0.00 0.03 0.00 100 1008.2
20260502040108 12 68 0.0 16.1 0.00 0.03 0.00 100 1008.1
20260502040006 12 65 0.0 16.1 0.00 0.03 0.00 100 1008.2
20260502035905 12 66 0.0 16.1 0.00 0.03 0.03 100 1008.2
20260502035807 12 80 0.0 16.1 0.00 0.03 0.03 100 1008.1
20260502035702 12 62 0.0 16.1 0.00 0.03 0.03 100 1008.2
20260502035602 12 62 1.6 16.1 0.00 0.03 0.03 100 1008.2
20260502035504 12 62 6.4 16.1 0.00 0.03 0.03 100 1008.2
20260502035403 12 87 4.8 16.1 0.00 0.03 0.03 100 1008.2
20260502035306 12 104 3.2 11.3 0.00 0.03 0.03 100 1008.2
20260502035203 12 87 3.2 11.3 0.00 0.03 0.03 100 1008.1
20260502035104 12 72 3.2 11.3 0.00 0.03 0.03 100 1008.2
20260502035005 12 21 3.2 11.3 0.00 0.03 0.03 100 1008.2
20260502034859 12 85 3.2 11.3 0.00 0.03 0.03 100 1008.2
20260502034755 12 85 3.2 11.3 0.00 0.03 0.03 100 1008.3
20260502034650 12 99 3.2 9.7 0.00 0.03 0.03 100 1008.1
20260502034546 12 219 3.2 9.7 0.00 0.03 0.03 100 1008.2
20260502034445 12 76 3.2 9.7 0.00 0.03 0.03 100 1008.2
20260502034342 12 63 3.2 9.7 0.00 0.03 0.03 100 1008.2
20260502034238 12 99 1.6 9.7 0.00 0.03 0.03 100 1008.2
20260502034138 12 96 1.6 9.7 0.00 0.03 0.03 100 1008.2
20260502034031 12 78 3.2 9.7 0.00 0.03 0.03 100 1008.2
20260502033932 12 83 6.4 9.7 0.00 0.03 0.03 100 1008.2
20260502033833 12 86 4.8 9.7 0.00 0.03 0.03 100 1008.2
20260502033731 12 66 3.2 6.4 0.00 0.03 0.03 100 1008.2
20260502033632 12 23 3.2 6.4 0.00 0.03 0.03 100 1008.2
20260502033528 12 59 3.2 6.4 0.00 0.03 0.03 100 1008.2
20260502033423 12 59 3.2 6.4 0.00 0.03 0.03 100 1008.2
20260502033323 12 103 3.2 6.4 0.00 0.03 0.03 100 1008.2
20260502033221 12 107 1.6 6.4 0.00 0.03 0.03 100 1008.1
20260502033112 12 338 1.6 6.4 0.00 0.03 0.03 100 1008.2
20260502033010 12 102 1.6 14.5 0.00 0.03 0.03 100 1008.2
20260502032911 12 180 1.6 14.5 0.00 0.03 0.03 100 1008.1
20260502032810 12 186 3.2 14.5 0.00 0.03 0.03 100 1008.2
20260502032712 12 329 3.2 14.5 0.00 0.03 0.03 100 1008.2
20260502032610 12 8 3.2 14.5 0.00 0.03 0.03 100 1008.2
20260502032512 12 145 3.2 14.5 0.00 0.03 0.03 100 1008.2
20260502032411 12 75 3.2 14.5 0.00 0.03 0.03 100 1008.2
20260502032312 12 94 3.2 14.5 0.00 0.03 0.03 100 1008.2
20260502032211 12 63 3.2 14.5 0.00 0.03 0.03 100 1008.1
20260502032111 12 13 1.6 14.5 0.00 0.03 0.03 100 1008.1
20260502032012 13 82 1.6 6.4 0.00 0.03 0.03 100 1008.2
20260502031911 12 82 3.2 6.4 0.00 0.03 0.03 100 1008.1
20260502031813 12 72 1.6 6.4 0.00 0.03 0.03 100 1008.1
20260502031711 13 117 1.6 6.4 0.00 0.03 0.03 100 1008.1
20260502031610 13 65 3.2 6.4 0.00 0.03 0.03 100 1008.0
20260502031511 13 55 3.2 8.0 0.00 0.03 0.03 100 1008.1
20260502031410 13 93 1.6 8.0 0.00 0.03 0.03 100 1008.1
20260502031312 13 97 0.0 8.0 0.00 0.03 0.03 100 1008.0
20260502031211 13 97 0.0 8.0 0.00 0.03 0.03 100 1008.0
20260502031112 13 97 0.0 11.3 0.00 0.03 0.03 100 1007.9
20260502031011 12 97 0.0 11.3 0.00 0.03 0.03 100 1007.8
20260502030910 13 97 1.6 11.3 0.00 0.03 0.03 100 1007.9
20260502030811 12 93 1.6 11.3 0.00 0.03 0.03 100 1007.9
20260502030710 13 93 3.2 11.3 0.00 0.03 0.03 100 1007.8
20260502030610 12 59 1.6 11.3 0.00 0.03 0.03 100 1007.8
20260502030510 12 27 1.6 11.3 0.00 0.03 0.03 100 1007.8
20260502030411 12 27 3.2 11.3 0.00 0.03 0.03 100 1007.8
20260502030311 12 24 3.2 11.3 0.00 0.03 0.03 100 1007.8
20260502030211 12 41 3.2 11.3 0.00 0.03 0.03 100 1007.8
20260502030110 12 92 1.6 8.0 0.00 0.03 0.03 100 1007.8
20260502030010 12 78 0.0 8.0 0.00 0.03 0.03 100 1007.8
20260502025910 12 78 0.0 8.0 0.00 0.03 0.03 100 1007.6
20260502025810 12 78 0.0 8.0 0.00 0.03 0.03 100 1007.7
20260502025710 12 78 3.2 8.0 0.00 0.03 0.03 100 1007.6
20260502025610 12 76 1.6 8.0 0.00 0.03 0.03 100 1007.6
20260502025511 12 111 1.6 8.0 0.00 0.03 0.03 100 1007.6
20260502025412 12 11 1.6 4.8 0.00 0.03 0.03 100 1007.6
20260502025310 12 10 1.6 4.8 0.00 0.03 0.03 100 1007.6
20260502025214 12 114 1.6 3.2 0.00 0.03 0.03 100 1007.5
20260502025111 12 114 1.6 3.2 0.00 0.03 0.03 100 1007.4
20260502025011 12 63 1.6 6.4 0.00 0.03 0.03 100 1007.4
20260502024909 12 65 0.0 9.7 0.00 0.03 0.03 100 1007.4
20260502024809 12 87 0.0 9.7 0.00 0.03 0.03 100 1007.3
20260502024709 12 87 1.6 9.7 0.00 0.03 0.03 100 1007.4
20260502024609 12 86 1.6 9.7 0.00 0.03 0.03 100 1007.4
20260502024511 12 66 1.6 9.7 0.00 0.03 0.03 100 1007.3
20260502024410 12 66 1.6 9.7 0.00 0.03 0.03 100 1007.4
20260502024311 12 66 1.6 9.7 0.00 0.03 0.03 100 1007.2
20260502024210 12 75 1.6 9.7 0.00 0.03 0.03 100 1007.2
20260502024111 12 79 3.2 9.7 0.00 0.03 0.03 100 1007.2
20260502024011 12 138 3.2 9.7 0.00 0.03 0.03 100 1007.2
20260502023909 12 104 0.0 8.0 0.00 0.03 0.03 100 1007.2
20260502023809 12 104 0.0 8.0 0.00 0.03 0.03 100 1007.1
20260502023711 12 96 1.6 8.0 0.00 0.03 0.03 100 1007.1
20260502023610 12 96 1.6 8.0 0.00 0.03 0.03 100 1007.1
20260502023511 12 100 0.0 8.0 0.00 0.03 0.03 100 1007.1
20260502023411 12 69 0.0 8.0 0.00 0.03 0.03 100 1007.1
20260502023309 12 69 1.6 8.0 0.00 0.03 0.03 100 1007.0
20260502023211 12 68 3.2 8.0 0.00 0.03 0.03 100 1007.0
20260502023110 12 76 3.2 8.0 0.00 0.03 0.03 100 1007.0
20260502023009 12 99 3.2 8.0 0.00 0.03 0.03 100 1006.9
20260502022911 12 66 1.6 4.8 0.00 0.03 0.03 100 1006.8
20260502022811 12 65 0.0 4.8 0.00 0.03 0.03 100 1006.7
20260502022710 12 65 1.6 4.8 0.00 0.03 0.03 100 1006.6
20260502022611 12 65 1.6 6.4 0.00 0.03 0.03 100 1006.6
20260502022509 12 102 1.6 6.4 0.00 0.03 0.03 100 1006.4
20260502022410 12 48 0.0 6.4 0.00 0.03 0.03 100 1006.4
20260502022310 12 48 1.6 6.4 0.00 0.03 0.03 100 1006.3
20260502022210 12 48 1.6 6.4 0.00 0.03 0.03 100 1006.3
20260502022109 12 47 3.2 6.4 0.00 0.03 0.03 100 1006.3
20260502022010 12 37 3.2 6.4 0.00 0.03 0.03 100 1006.3
20260502021914 12 85 1.6 6.4 0.00 0.03 0.03 100 1006.3
20260502021809 12 93 1.6 6.4 0.00 0.03 0.03 100 1006.3
20260502021707 12 79 1.6 6.4 0.00 0.03 0.03 100 1006.2
20260502021603 12 100 1.6 14.5 0.00 0.03 0.03 100 1006.2
20260502021503 12 100 1.6 14.5 0.00 0.03 0.03 100 1006.3
20260502021403 12 90 1.6 14.5 0.00 0.03 0.03 100 1006.3
20260502021302 12 87 1.6 14.5 0.00 0.03 0.03 100 1006.3
20260502021204 12 87 1.6 14.5 0.00 0.03 0.03 100 1006.3
20260502021107 13 87 1.6 14.5 0.00 0.03 0.03 100 1006.3
20260502021003 13 109 0.0 14.5 0.00 0.03 0.03 100 1006.3
20260502020903 13 109 1.6 14.5 0.00 0.03 0.03 100 1006.3
20260502020802 13 63 3.2 14.5 0.00 0.03 0.03 100 1006.4
20260502020703 13 63 3.2 14.5 0.00 0.03 0.03 100 1006.3
20260502020603 13 42 1.6 9.7 0.00 0.03 0.03 100 1006.3
20260502020502 13 62 1.6 9.7 0.00 0.03 0.03 100 1006.4
20260502020403 13 37 3.2 9.7 0.00 0.03 0.03 100 1006.4
20260502020302 13 75 3.2 9.7 0.00 0.03 0.03 100 1006.3
20260502020203 13 331 3.2 9.7 0.00 0.03 0.03 100 1006.3
20260502020103 13 324 1.6 9.7 0.00 0.03 0.03 100 1006.3
20260502020003 13 94 3.2 9.7 0.00 0.03 0.03 100 1006.3
20260502015901 13 65 3.2 9.7 0.00 0.03 0.03 100 1006.3
20260502015803 13 30 3.2 9.7 0.00 0.03 0.03 100 1006.3
20260502015703 13 27 4.8 9.7 0.00 0.03 0.03 100 1006.4
20260502015602 13 86 3.2 6.4 0.00 0.03 0.03 100 1006.3
20260502015504 13 0 1.6 6.4 0.00 0.03 0.03 100 1006.4
20260502015405 13 327 1.6 6.4 0.00 0.03 0.03 100 1006.3
20260502015305 13 79 1.6 6.4 0.00 0.03 0.03 100 1006.3
20260502015201 13 72 1.6 6.4 0.00 0.03 0.03 100 1006.3
20260502015103 13 72 3.2 6.4 0.00 0.03 0.03 100 1006.3
20260502015004 13 110 1.6 4.8 0.00 0.03 0.03 100 1006.3
20260502014902 13 102 1.6 6.4 0.00 0.03 0.03 100 1006.3
20260502014803 13 99 1.6 6.4 0.00 0.03 0.03 100 1006.3
20260502014702 13 72 1.6 6.4 0.00 0.03 0.03 100 1006.3
20260502014603 13 86 3.2 6.4 0.00 0.03 0.03 100 1006.3
20260502014505 13 83 3.2 9.7 0.00 0.03 0.03 100 1006.3
20260502014402 13 25 3.2 9.7 0.00 0.03 0.03 100 1006.2
20260502014303 13 99 3.2 9.7 0.00 0.03 0.03 100 1006.1
20260502014204 13 87 1.6 9.7 0.00 0.03 0.03 100 1006.2
20260502014103 13 290 3.2 11.3 0.00 0.03 0.03 100 1006.2
20260502014003 13 65 3.2 11.3 0.00 0.03 0.03 100 1006.2
20260502013904 13 114 1.6 11.3 0.00 0.03 0.03 100 1006.2
20260502013802 13 99 1.6 11.3 0.00 0.03 0.03 100 1006.1
20260502013703 13 103 3.2 11.3 0.00 0.03 0.03 100 1006.1
20260502013603 13 102 3.2 11.3 0.00 0.03 0.03 100 1006.0
20260502013505 13 109 1.6 11.3 0.00 0.03 0.03 100 1006.0
20260502013403 13 109 1.6 11.3 0.00 0.03 0.03 100 1006.0
20260502013303 13 109 3.2 11.3 0.00 0.03 0.03 100 1006.0
20260502013204 13 110 4.8 11.3 0.00 0.03 0.03 100 1006.1
20260502013104 13 76 3.2 11.3 0.00 0.03 0.03 100 1005.9
20260502013005 13 107 3.2 11.3 0.00 0.03 0.03 100 1005.9
20260502012902 13 75 1.6 11.3 0.00 0.03 0.03 100 1005.9
20260502012803 13 0 3.2 11.3 0.00 0.03 0.03 100 1005.9
20260502012703 13 259 3.2 11.3 0.00 0.03 0.03 100 1005.9
20260502012602 13 10 1.6 11.3 0.00 0.03 0.03 100 1005.9
20260502012504 13 4 1.6 11.3 0.00 0.03 0.03 100 1005.8
20260502012403 13 102 3.2 11.3 0.00 0.03 0.03 100 1005.8
20260502012306 13 102 4.8 11.3 0.00 0.03 0.03 100 1005.8
20260502012204 13 0 4.8 11.3 0.00 0.03 0.03 100 1005.8
20260502012104 13 65 4.8 11.3 0.00 0.03 0.03 100 1005.9
20260502012003 13 30 1.6 11.3 0.00 0.03 0.03 100 1006.0
20260502011902 13 44 1.6 11.3 0.00 0.03 0.03 100 1005.8
20260502011803 13 333 0.0 11.3 0.00 0.03 0.03 100 1005.9
20260502011704 13 42 3.2 11.3 0.00 0.03 0.03 100 1005.9
20260502011602 13 42 3.2 11.3 0.00 0.03 0.03 100 1005.8
20260502011503 13 87 3.2 8.0 0.00 0.03 0.03 100 1006.0
20260502011402 13 82 3.2 8.0 0.00 0.03 0.03 100 1006.0
20260502011303 13 73 1.6 8.0 0.00 0.03 0.03 100 1006.1
20260502011204 13 73 3.2 8.0 0.00 0.03 0.03 100 1006.2
20260502011104 13 96 3.2 8.0 0.00 0.03 0.03 100 1006.2
20260502011004 13 66 1.6 8.0 0.00 0.03 0.03 100 1006.3
20260502010902 13 42 1.6 6.4 0.00 0.03 0.03 100 1006.4
20260502010803 13 44 1.6 6.4 0.00 0.03 0.03 100 1006.4
20260502010704 13 32 1.6 6.4 0.00 0.03 0.03 100 1006.5
20260502010602 13 32 3.2 6.4 0.00 0.03 0.03 100 1006.5
20260502010503 13 100 3.2 6.4 0.00 0.03 0.03 100 1006.5
20260502010403 13 71 1.6 6.4 0.00 0.03 0.03 100 1006.6
20260502010302 13 193 0.0 6.4 0.00 0.03 0.03 100 1006.5
20260502010202 13 193 1.6 6.4 0.00 0.03 0.03 100 1006.6
20260502010121 13 86 1.6 6.4 0.00 0.03 0.03 100 1006.4
20260502010110 13 193 1.6 6.4 0.00 0.03 0.03 100 1006.5
20260502010050 13 86 1.6 6.4 0.00 0.03 0.03 100 1006.5
20260502010025 13 86 0.0 6.4 0.00 0.03 0.03 100 1006.5
20260502005704 13 87 1.6 6.4 0.00 0.03 0.03 100 1006.3
20260502005602 13 316 3.2 6.4 0.00 0.03 0.03 100 1006.2
20260502005504 14 240 1.6 6.4 0.00 0.03 0.03 100 1006.1
20260502005403 14 165 1.6 6.4 0.00 0.03 0.03 100 1006.1
20260502005306 14 63 1.6 6.4 0.00 0.03 0.03 100 1006.0
20260502005202 14 61 1.6 6.4 0.00 0.03 0.03 100 1006.0
20260502005102 14 319 3.2 6.4 0.00 0.03 0.03 100 1005.9
20260502005003 14 100 3.2 6.4 0.00 0.03 0.03 100 1005.9
20260502004907 14 1 3.2 9.7 0.00 0.03 0.03 100 1005.9
20260502004802 14 123 3.2 9.7 0.00 0.03 0.03 100 1005.7
20260502004703 14 142 3.2 9.7 0.00 0.03 0.03 100 1005.7
20260502004603 14 324 1.6 9.7 0.00 0.03 0.03 100 1005.6
20260502004502 14 85 1.6 9.7 0.00 0.03 0.03 100 1005.5
20260502004402 14 137 1.6 11.3 0.00 0.03 0.03 100 1005.4
20260502004304 14 137 1.6 11.3 0.00 0.03 0.03 100 1005.4
20260502004204 14 137 3.2 11.3 0.00 0.03 0.03 100 1005.3
20260502004109 14 87 3.2 11.3 0.00 0.03 0.03 100 1005.2
20260502004003 14 279 3.2 11.3 0.00 0.03 0.03 100 1005.1
20260502003903 14 289 3.2 11.3 0.00 0.03 0.03 100 1005.1
20260502003803 14 73 1.6 11.3 0.00 0.03 0.03 100 1005.0
20260502003703 14 45 3.2 11.3 0.00 0.03 0.03 100 1005.1
20260502003605 14 65 4.8 14.5 0.00 0.03 0.03 100 1005.0
20260502003504 14 86 3.2 14.5 0.00 0.03 0.03 100 1005.1
20260502003403 14 293 3.2 14.5 0.00 0.03 0.03 100 1005.1
20260502003303 14 47 3.2 14.5 0.00 0.03 0.03 100 1005.1
20260502003203 14 86 3.2 14.5 0.00 0.03 0.03 100 1005.1
20260502003102 14 118 3.2 14.5 0.00 0.03 0.03 100 1005.0
20260502003002 14 87 3.2 14.5 0.00 0.03 0.03 100 1005.0
20260502002904 14 27 1.6 14.5 0.00 0.03 0.03 100 1004.9
20260502002803 14 25 4.8 14.5 0.00 0.03 0.03 100 1005.0
20260502002702 14 24 4.8 14.5 0.00 0.03 0.03 100 1004.9
20260502002602 14 62 3.2 9.7 0.00 0.03 0.03 100 1005.0
20260502002504 14 31 3.2 9.7 0.00 0.03 0.03 100 1004.9
20260502002403 14 96 1.6 9.7 0.00 0.03 0.03 100 1005.0
20260502002305 14 78 3.2 9.7 0.00 0.03 0.03 100 1005.0
20260502002203 14 75 4.8 9.7 0.00 0.03 0.03 100 1005.1
20260502002104 15 83 4.8 9.7 0.00 0.03 0.03 100 1005.2
20260502002005 15 133 3.2 6.4 0.00 0.03 0.03 100 1005.3
20260502001904 15 90 0.0 6.4 0.00 0.03 0.03 100 1005.3
20260502001802 15 83 0.0 6.4 0.00 0.03 0.03 100 1005.5
20260502001703 15 83 0.0 6.4 0.00 0.03 0.03 100 1005.7
20260502001609 15 83 1.6 6.4 0.00 0.03 0.03 100 1005.7
20260502001503 15 83 3.2 6.4 0.00 0.03 0.03 100 1005.8
20260502001402 15 83 3.2 6.4 0.00 0.03 0.03 100 1005.9
20260502001302 15 344 1.6 6.4 0.00 0.03 0.03 100 1006.0
20260502001203 15 183 0.0 3.2 0.00 0.03 0.03 100 1006.0
20260502001102 15 183 1.6 4.8 0.00 0.03 0.03 100 1006.0
20260502001004 15 183 1.6 4.8 0.00 0.03 0.03 100 1005.9
20260502000903 15 76 1.6 4.8 0.00 0.03 0.03 100 1005.9
20260502000805 15 76 1.6 4.8 0.00 0.03 0.03 100 1005.8
20260502000703 15 82 0.0 4.8 0.00 0.03 0.03 100 1005.8
20260502000602 15 82 0.0 4.8 0.00 0.03 0.03 100 1005.7
20260502000502 15 82 0.0 4.8 0.00 0.03 0.03 100 1005.7
20260502000403 15 82 0.0 6.4 0.00 0.03 0.03 100 1005.7
20260502000303 15 82 1.6 6.4 0.00 0.03 0.03 100 1005.5
20260502000203 15 82 1.6 6.4 0.00 0.03 0.03 100 1005.4
20260502000004 15 31 0.0 6.4 0.00 0.03 0.03 100 1005.1
20260501235902 15 31 1.6 6.4 0.00 0.03 0.03 100 1005.1
20260501235803 15 31 1.6 6.4 0.00 0.03 0.03 100 1005.0
20260501235704 15 326 0.0 6.4 0.00 0.03 0.03 100 1005.0
20260501235601 15 326 1.6 6.4 0.00 0.03 0.03 100 1005.0
20260501235502 15 326 1.6 6.4 0.00 0.03 0.03 100 1004.9
20260501235403 15 103 0.0 4.8 0.00 0.03 0.03 100 1004.9
20260501235305 15 103 1.6 4.8 0.00 0.03 0.03 100 1004.9
20260501235203 15 104 1.6 4.8 0.00 0.03 0.03 100 1004.9
20260501235103 15 123 0.0 4.8 0.00 0.03 0.03 100 1004.9
20260501235003 15 59 0.0 4.8 0.00 0.03 0.03 100 1004.9
20260501234902 15 59 0.0 4.8 0.00 0.03 0.03 100 1004.9
20260501234804 15 87 0.0 4.8 0.00 0.03 0.03 100 1005.0
20260501234703 15 87 1.6 4.8 0.00 0.03 0.03 100 1005.0
20260501234603 15 89 1.6 4.8 0.00 0.03 0.03 100 1005.1
20260501234503 15 89 1.6 4.8 0.00 0.03 0.03 100 1005.0
20260501234401 15 28 0.0 4.8 0.00 0.03 0.03 100 1005.1
20260501234300 15 28 1.6 4.8 0.00 0.03 0.03 100 1005.1
20260501234155 15 59 1.6 4.8 0.00 0.03 0.03 100 1005.2
20260501234053 15 80 0.0 0.0 0.00 0.03 0.03 100 1005.2
20260501233954 15 80 0.0 0.0 0.00 0.03 0.03 100 1005.1
20260501233850 15 66 0.0 0.0 0.00 0.03 0.03 100 1005.1
20260501233743 15 48 0.0 0.0 0.00 0.03 0.03 100 1005.1
20260501233632 15 48 0.0 1.6 0.00 0.03 0.03 100 1005.0
20260501233531 15 48 0.0 3.2 0.00 0.03 0.03 100 1005.0
20260501233431 15 48 0.0 4.8 0.00 0.03 0.03 100 1005.1
20260501233333 15 45 0.0 4.8 0.00 0.03 0.03 100 1005.2
20260501233233 15 45 0.0 6.4 0.00 0.03 0.03 100 1005.2
20260501233131 15 45 0.0 6.4 0.00 0.03 0.03 100 1005.2
20260501233032 15 45 0.0 6.4 0.00 0.03 0.03 100 1005.1
20260501232933 15 45 0.0 6.4 0.00 0.03 0.03 100 1005.0
20260501232832 15 45 0.0 6.4 0.00 0.03 0.03 100 1005.1
20260501232731 15 45 1.6 6.4 0.00 0.03 0.03 100 1005.0
20260501232632 15 32 1.6 6.4 0.00 0.03 0.03 100 1004.9
20260501232531 15 86 1.6 6.4 0.00 0.03 0.03 100 1005.0
20260501232432 15 75 1.6 6.4 0.00 0.03 0.03 100 1004.9
20260501232332 15 75 3.2 6.4 0.00 0.03 0.03 100 1004.9
20260501232231 15 73 1.6 4.8 0.00 0.03 0.03 100 1004.8
20260501232130 15 73 0.0 4.8 0.00 0.03 0.03 100 1004.8
20260501232031 15 73 1.6 4.8 0.00 0.03 0.03 100 1004.9
20260501231933 15 107 1.6 4.8 0.00 0.03 0.03 100 1004.9
20260501231816 15 87 0.0 3.2 0.00 0.03 0.03 100 1004.9
20260501231705 15 86 1.6 3.2 0.00 0.03 0.03 100 1004.9
20260501231605 15 86 0.0 3.2 0.00 0.03 0.03 100 1004.9
20260501231504 15 86 1.6 3.2 0.00 0.03 0.03 100 1004.7
20260501231406 15 86 1.6 3.2 0.00 0.03 0.03 100 1004.7
20260501231305 15 86 1.6 8.0 0.00 0.03 0.03 100 1004.6
20260501231206 15 0 1.6 8.0 0.00 0.03 0.03 100 1004.1
20260501231104 15 0 1.6 8.0 0.00 0.03 0.03 100 1004.1
20260501231004 15 0 1.6 8.0 0.00 0.03 0.03 100 1004.0
20260501230906 15 0 0.0 8.0 0.00 0.03 0.03 100 1003.8
20260501230806 15 0 0.0 8.0 0.00 0.03 0.03 100 1003.6
20260501230704 15 7 3.2 8.0 0.00 0.03 0.03 100 1003.5
20260501230604 15 7 3.2 8.0 0.00 0.03 0.03 100 1003.4
20260501230505 15 7 3.2 8.0 0.00 0.03 0.03 100 1003.4
20260501230404 15 1 3.2 8.0 0.00 0.03 0.03 100 1003.3
20260501230304 15 350 1.6 4.8 0.00 0.03 0.03 100 1003.4
20260501230219 15 355 0.0 4.8 0.00 0.03 0.03 100 1003.4
20260501230104 15 47 1.6 4.8 0.00 0.03 0.03 100 1003.3
20260501230004 15 47 3.2 4.8 0.00 0.03 0.03 100 1003.3
20260501225904 15 47 3.2 4.8 0.00 0.03 0.03 100 1003.2
20260501225804 15 90 1.6 4.8 0.00 0.03 0.03 100 1003.2
20260501225704 15 73 1.6 4.8 0.00 0.03 0.03 100 1003.1
20260501225604 15 41 1.6 4.8 0.00 0.03 0.03 100 1003.1
20260501225505 15 289 0.0 4.8 0.00 0.03 0.03 100 1003.1
20260501225412 15 292 0.0 6.4 0.00 0.03 0.03 100 1003.1
20260501225306 15 292 1.6 6.4 0.00 0.03 0.03 100 1003.3
20260501225204 15 106 1.6 6.4 0.00 0.03 0.03 100 1003.3
20260501225104 15 323 1.6 6.4 0.00 0.03 0.03 100 1003.4
20260501225006 15 261 1.6 8.0 0.00 0.03 0.03 100 1003.5
20260501224906 15 76 3.2 8.0 0.00 0.03 0.03 100 1003.5
20260501224804 15 145 3.2 8.0 0.00 0.03 0.03 100 1003.5
20260501224706 15 61 3.2 8.0 0.00 0.03 0.03 100 1003.5
20260501224607 15 59 1.6 8.0 0.00 0.03 0.03 100 1003.5
20260501224505 15 0 1.6 8.0 0.00 0.03 0.03 100 1003.5
20260501224404 15 123 1.6 8.0 0.00 0.03 0.03 100 1003.5
20260501224305 15 110 1.6 8.0 0.00 0.03 0.03 100 1003.4
20260501224204 15 111 1.6 8.0 0.00 0.03 0.03 100 1003.4
20260501224104 15 66 3.2 8.0 0.00 0.03 0.03 100 1003.3
20260501224005 15 121 3.2 6.4 0.00 0.03 0.03 100 1003.1
20260501223904 15 83 3.2 6.4 0.00 0.03 0.03 100 1003.0
20260501223804 15 30 3.2 8.0 0.00 0.03 0.03 100 1003.1
20260501223704 15 111 3.2 8.0 0.00 0.03 0.03 100 1003.2
20260501223604 15 69 3.2 8.0 0.00 0.03 0.03 100 1003.3
20260501223507 15 120 3.2 8.0 0.00 0.03 0.03 100 1003.3
20260501223404 15 68 3.2 8.0 0.00 0.03 0.03 100 1003.5
20260501223304 15 274 1.6 8.0 0.00 0.03 0.03 100 1003.5
20260501223203 15 312 1.6 8.0 0.00 0.03 0.03 100 1003.5
20260501223104 15 312 3.2 8.0 0.00 0.03 0.03 100 1003.5
20260501223005 15 338 4.8 8.0 0.00 0.03 0.03 100 1003.1
20260501222904 15 76 4.8 8.0 0.00 0.03 0.03 100 1002.9
20260501222803 15 0 3.2 8.0 0.00 0.03 0.03 100 1002.9
20260501222703 15 162 3.2 8.0 0.00 0.03 0.03 100 1002.4
20260501222603 15 11 1.6 8.0 0.00 0.03 0.03 100 1002.4
20260501222504 15 11 1.6 8.0 0.00 0.03 0.03 100 1002.1
20260501222403 15 24 1.6 8.0 0.00 0.03 0.03 100 1001.9
20260501222305 15 305 3.2 8.0 0.00 0.03 0.03 100 1001.9
20260501222204 15 111 4.8 8.0 0.00 0.03 0.03 100 1001.7
20260501222103 15 65 4.8 8.0 0.00 0.03 0.03 100 1001.6
20260501222005 15 121 1.6 8.0 0.00 0.03 0.03 100 1001.6
20260501221904 15 147 1.6 9.7 0.00 0.03 0.03 100 1001.6
20260501221803 15 144 1.6 9.7 0.00 0.03 0.03 100 1001.7
20260501221703 15 94 1.6 9.7 0.00 0.03 0.03 100 1001.7
20260501221603 15 93 3.2 9.7 0.00 0.03 0.03 100 1001.9
20260501221503 15 94 3.2 9.7 0.00 0.03 0.03 100 1002.0
20260501221403 15 28 1.6 9.7 0.00 0.03 0.03 100 1001.9
20260501221303 15 28 3.2 9.7 0.00 0.03 0.03 100 1001.8
20260501221204 15 358 3.2 9.7 0.00 0.03 0.03 100 1001.8
20260501221104 15 86 3.2 9.7 0.00 0.03 0.03 100 1001.7
20260501221004 15 30 3.2 9.7 0.00 0.03 0.03 100 1001.9
20260501220903 15 114 3.2 8.0 0.00 0.03 0.03 100 1001.9
20260501220804 15 92 3.2 8.0 0.00 0.03 0.03 100 1002.0
20260501220704 15 24 4.8 9.7 0.00 0.03 0.03 100 1002.1
20260501220604 15 0 4.8 9.7 0.00 0.03 0.03 100 1002.1
20260501220504 15 114 4.8 9.7 0.00 0.03 0.03 100 1002.2
20260501220403 15 65 3.2 9.7 0.00 0.03 0.03 100 1002.4
20260501220255 15 92 1.6 9.7 0.00 0.03 0.03 100 1002.5
20260501220153 15 62 1.6 9.7 0.00 0.03 0.03 100 1002.7
20260501220049 15 61 1.6 9.7 0.00 0.03 0.03 100 1002.8
20260501215945 15 69 1.6 9.7 0.00 0.03 0.03 100 1002.8
20260501215843 15 83 1.6 9.7 0.00 0.03 0.03 100 1002.8
20260501215738 15 334 3.2 9.7 0.00 0.03 0.03 100 1002.8
20260501215633 15 1 3.2 14.5 0.00 0.03 0.03 100 1002.8
20260501215533 15 121 3.2 14.5 0.00 0.03 0.03 100 1002.6
20260501215432 15 123 3.2 14.5 0.00 0.03 0.03 100 1002.6
20260501215331 15 104 3.2 14.5 0.00 0.03 0.03 100 1002.7
20260501215231 15 104 3.2 14.5 0.00 0.03 0.03 100 1002.8
20260501215131 15 158 3.2 14.5 0.00 0.03 0.03 100 1002.9
20260501215030 15 104 3.2 14.5 0.00 0.03 0.03 100 1003.0
20260501214932 15 94 3.2 14.5 0.00 0.03 0.03 100 1003.1
20260501214832 15 63 4.8 14.5 0.00 0.03 0.03 100 1003.1
20260501214725 15 3 3.2 9.7 0.00 0.03 0.03 100 1003.1
20260501214623 15 4 3.2 8.0 0.00 0.03 0.03 100 1003.2
20260501214520 15 100 1.6 8.0 0.00 0.03 0.03 100 1003.1
20260501214418 15 312 0.0 8.0 0.00 0.03 0.03 100 1003.2
20260501214304 15 310 1.6 8.0 0.00 0.03 0.03 100 1003.1
20260501214203 15 16 1.6 8.0 0.00 0.03 0.03 100 1003.2
20260501214103 15 52 1.6 8.0 0.00 0.03 0.03 100 1003.3
20260501214003 15 100 1.6 8.0 0.00 0.03 0.03 100 1003.3
20260501213904 15 100 3.2 8.0 0.00 0.03 0.03 100 1003.4
20260501213804 15 71 4.8 8.0 0.00 0.03 0.03 100 1003.8
20260501213702 15 96 4.8 8.0 0.00 0.03 0.03 100 1004.0
20260501213602 15 68 3.2 8.0 0.00 0.03 0.03 100 1004.0
20260501213451 15 94 1.6 9.7 0.00 0.03 0.03 100 1004.0
20260501213340 15 94 1.6 9.7 0.00 0.03 0.03 100 1004.0
20260501213241 15 89 1.6 9.7 0.00 0.03 0.03 100 1003.9
20260501213137 15 89 1.6 9.7 0.00 0.03 0.03 100 1003.9
20260501213033 15 73 1.6 9.7 0.00 0.03 0.03 100 1003.8
20260501212931 15 80 3.2 9.7 0.00 0.03 0.03 100 1003.8
20260501212832 15 327 3.2 9.7 0.00 0.03 0.03 100 1003.6
20260501212730 15 18 3.2 9.7 0.00 0.03 0.03 100 1003.7
20260501212628 15 69 3.2 9.7 0.00 0.03 0.03 100 1003.7
20260501212525 15 42 3.2 6.4 0.00 0.03 0.03 100 1003.7
20260501212425 15 96 3.2 6.4 0.00 0.03 0.03 100 1003.6
20260501212320 15 82 3.2 9.7 0.00 0.03 0.03 100 1003.6
20260501212215 15 241 1.6 9.7 0.00 0.03 0.03 100 1003.5
20260501212103 15 100 1.6 9.7 0.00 0.03 0.03 100 1003.5
20260501212003 15 151 1.6 9.7 0.00 0.03 0.03 100 1003.5
20260501211902 15 113 1.6 9.7 0.00 0.03 0.03 100 1003.4
20260501211802 15 109 3.2 9.7 0.00 0.03 0.03 100 1003.3
20260501211703 16 116 3.2 9.7 0.00 0.03 0.03 100 1003.2
20260501211604 15 34 3.2 9.7 0.00 0.03 0.03 100 1003.0
20260501211452 16 58 3.2 9.7 0.00 0.03 0.03 100 1002.8
20260501211348 16 75 3.2 6.4 0.00 0.03 0.03 100 1002.9
20260501211240 16 32 3.2 6.4 0.00 0.03 0.03 100 1003.3
20260501211134 16 111 1.6 6.4 0.00 0.03 0.03 100 1003.5
20260501211031 16 111 1.6 8.0 0.00 0.03 0.03 100 1003.7
20260501210932 16 89 1.6 8.0 0.00 0.03 0.03 100 1003.7
20260501210830 16 87 1.6 11.3 0.00 0.03 0.03 100 1003.7
20260501210730 16 295 0.0 11.3 0.00 0.03 0.03 100 1003.6
20260501210622 16 295 1.6 11.3 0.00 0.03 0.03 100 1003.5
20260501210517 16 289 3.2 11.3 0.00 0.03 0.03 100 1003.5
20260501210410 16 52 1.6 11.3 0.00 0.03 0.03 100 1003.5
20260501210303 16 63 1.6 11.3 0.00 0.03 0.03 100 1003.4
20260501210202 16 62 3.2 11.3 0.00 0.03 0.03 100 1003.4
20260501210104 16 65 4.8 11.3 0.00 0.03 0.03 100 1003.4
20260501210004 16 102 3.2 11.3 0.00 0.03 0.03 100 1003.4
20260501205902 16 73 1.6 3.2 0.00 0.03 0.03 100 1003.4
20260501205802 16 69 1.6 3.2 0.00 0.03 0.03 100 1003.5
20260501205702 16 68 1.6 3.2 0.00 0.03 0.03 100 1003.4
20260501205604 16 133 0.0 3.2 0.00 0.03 0.03 100 1003.5
20260501205501 16 133 0.0 4.8 0.00 0.03 0.03 100 1003.5
20260501205403 16 133 0.0 4.8 0.00 0.03 0.03 100 1003.4
20260501205305 16 133 0.0 4.8 0.00 0.03 0.03 100 1003.3
20260501205202 16 133 0.0 4.8 0.00 0.03 0.03 100 1003.2
20260501205104 16 133 0.0 6.4 0.00 0.03 0.03 100 1002.9
20260501205003 16 133 0.0 6.4 0.00 0.03 0.03 100 1002.8
20260501204901 16 131 0.0 6.4 0.00 0.03 0.03 100 1002.6
20260501204801 16 131 0.0 6.4 0.00 0.03 0.03 100 1002.4
20260501204704 16 131 1.6 6.4 0.00 0.03 0.03 100 1002.3
20260501204559 16 131 1.6 8.0 0.00 0.03 0.03 100 1002.2
20260501204454 16 128 3.2 8.0 0.00 0.03 0.03 100 1002.0
20260501204352 16 86 3.2 8.0 0.00 0.03 0.03 100 1001.8
20260501204245 16 83 3.2 8.0 0.00 0.03 0.03 100 1001.7
20260501204137 16 92 3.2 8.0 0.00 0.03 0.03 100 1001.6
20260501204035 16 38 3.2 8.0 0.00 0.03 0.03 100 1001.6
20260501203932 16 0 3.2 8.0 0.00 0.03 0.03 100 1001.6
20260501203832 16 93 3.2 8.0 0.00 0.03 0.03 100 1001.8
20260501203730 16 89 3.2 8.0 0.00 0.03 0.03 100 1002.0
20260501203631 16 125 3.2 8.0 0.00 0.03 0.03 100 1002.2
20260501203532 16 72 1.6 6.4 0.00 0.03 0.03 100 1002.4
20260501203433 16 72 3.2 6.4 0.00 0.03 0.03 100 1002.6
20260501203332 16 56 3.2 6.4 0.00 0.03 0.03 100 1002.7
20260501203232 16 97 1.6 6.4 0.00 0.03 0.03 100 1002.7
20260501203131 16 59 0.0 6.4 0.00 0.03 0.03 100 1002.7
20260501203031 16 62 1.6 6.4 0.00 0.03 0.03 100 1002.7
20260501202931 16 62 1.6 6.4 0.00 0.03 0.03 100 1002.7
20260501202833 16 85 3.2 8.0 0.00 0.03 0.03 100 1002.7
20260501202731 16 38 3.2 8.0 0.00 0.03 0.03 100 1002.7
20260501202637 16 96 1.6 8.0 0.00 0.03 0.03 100 1002.7
20260501202524 16 96 0.0 8.0 0.00 0.03 0.03 100 1002.6
20260501202423 16 96 1.6 8.0 0.00 0.03 0.03 100 1002.6
20260501202320 16 96 1.6 8.0 0.00 0.03 0.03 100 1002.5
20260501202217 16 204 1.6 8.0 0.00 0.03 0.03 100 1002.6
20260501202109 16 128 1.6 8.0 0.00 0.03 0.03 100 1002.6
20260501202005 16 63 3.2 8.0 0.00 0.03 0.03 100 1002.6
20260501201902 16 68 1.6 8.0 0.00 0.03 0.03 100 1002.6
20260501201803 16 76 1.6 9.7 0.00 0.03 0.03 100 1002.6
20260501201702 16 131 1.6 9.7 0.00 0.03 0.03 100 1002.5
20260501201603 16 83 1.6 9.7 0.00 0.03 0.03 100 1002.4
20260501201503 16 94 3.2 14.5 0.00 0.03 0.03 100 1002.4
20260501201402 16 96 3.2 14.5 0.00 0.03 0.03 100 1002.3
20260501201303 16 78 3.2 14.5 0.00 0.03 0.03 100 1002.3
20260501201204 16 72 3.2 14.5 0.00 0.03 0.03 100 1002.2
20260501201103 16 83 1.6 14.5 0.00 0.03 0.03 100 1002.2
20260501201002 16 38 1.6 14.5 0.00 0.03 0.03 100 1002.1
20260501200902 16 38 3.2 14.5 0.00 0.03 0.03 100 1001.9
20260501200802 16 63 3.2 14.5 0.00 0.03 0.03 100 1001.9
20260501200702 16 92 3.2 14.5 0.00 0.03 0.03 100 1001.8
20260501200603 16 68 3.2 14.5 0.00 0.03 0.03 100 1001.8
20260501200502 16 6 1.6 9.7 0.00 0.03 0.03 100 1001.8
20260501200402 16 4 3.2 9.7 0.00 0.03 0.03 100 1001.9
20260501200302 16 90 3.2 9.7 0.00 0.03 0.03 100 1002.0
20260501200208 16 80 3.2 11.3 0.00 0.03 0.03 100 1002.2
20260501200004 16 79 3.2 11.3 0.00 0.03 0.03 100 1002.7
20260501195903 16 1 1.6 11.3 0.00 0.03 0.03 100 1002.8
20260501195803 16 73 1.6 11.3 0.00 0.03 0.03 100 1002.8
20260501195704 16 73 3.2 11.3 0.00 0.03 0.03 100 1002.8
20260501195604 16 73 3.2 11.3 0.00 0.03 0.03 100 1002.7
20260501195502 16 7 3.2 11.3 0.00 0.03 0.03 100 1002.6
20260501195404 16 63 4.8 11.3 0.00 0.03 0.03 100 1002.5
20260501195305 16 68 4.8 11.3 0.00 0.03 0.03 100 1002.5
20260501195203 16 55 3.2 6.4 0.00 0.03 0.03 100 1002.6
20260501195102 16 76 1.6 6.4 0.00 0.03 0.03 100 1002.8
20260501195003 16 345 1.6 6.4 0.00 0.03 0.03 100 1002.9
20260501194902 16 92 3.2 6.4 0.00 0.03 0.03 100 1003.1
20260501194805 16 96 1.6 4.8 0.00 0.03 0.03 100 1003.1
20260501194703 16 109 1.6 3.2 0.00 0.03 0.03 100 1002.9
20260501194607 16 106 1.6 3.2 0.00 0.03 0.03 100 1002.7
20260501194504 16 78 0.0 3.2 0.00 0.03 0.03 100 1002.7
20260501194404 16 76 1.6 3.2 0.00 0.03 0.03 100 1002.7
20260501194302 16 76 1.6 3.2 0.00 0.03 0.03 100 1002.8
20260501194202 16 75 1.6 3.2 0.00 0.03 0.03 100 1002.7
20260501194102 16 72 1.6 3.2 0.00 0.03 0.03 100 1002.8
20260501194002 16 73 1.6 4.8 0.00 0.03 0.03 100 1003.0
20260501193903 16 164 0.0 4.8 0.00 0.03 0.03 100 1003.3
20260501193802 16 164 1.6 4.8 0.00 0.03 0.03 100 1003.6
20260501193702 16 164 1.6 4.8 0.00 0.03 0.03 100 1003.7
20260501193602 16 102 0.0 4.8 0.00 0.03 0.03 100 1003.6
20260501193502 16 99 0.0 4.8 0.00 0.03 0.03 100 1003.4
20260501193403 16 99 0.0 4.8 0.00 0.03 0.03 100 1003.2
20260501193303 16 99 0.0 4.8 0.00 0.03 0.03 100 1002.9
20260501193202 16 99 1.6 4.8 0.00 0.03 0.03 100 1002.7
20260501193101 16 99 1.6 4.8 0.00 0.03 0.03 100 1002.6
20260501193003 16 0 1.6 3.2 0.00 0.03 0.03 100 1002.7
20260501192904 16 110 0.0 3.2 0.00 0.03 0.03 100 1002.7
20260501192803 16 302 0.0 3.2 0.00 0.03 0.03 100 1002.8
20260501192702 16 302 1.6 3.2 0.00 0.03 0.03 100 1002.9
20260501192603 16 300 1.6 3.2 0.00 0.03 0.03 100 1002.9
20260501192503 16 300 1.6 3.2 0.00 0.03 0.03 100 1002.9
20260501192403 16 109 1.6 3.2 0.00 0.03 0.03 100 1002.9
20260501192306 16 109 1.6 3.2 0.00 0.03 0.03 100 1002.8
20260501192202 16 109 1.6 3.2 0.00 0.03 0.03 100 1002.8
20260501192103 16 110 0.0 3.2 0.00 0.03 0.03 100 1002.7
20260501192004 16 110 1.6 3.2 0.00 0.03 0.03 100 1002.6
20260501191902 16 110 1.6 3.2 0.00 0.03 0.03 100 1002.6
20260501191803 16 83 1.6 6.4 0.00 0.03 0.03 100 1002.6
20260501191702 16 83 1.6 6.4 0.00 0.03 0.03 100 1002.7
20260501191601 16 83 0.0 6.4 0.00 0.03 0.03 100 1002.7
20260501191504 16 103 0.0 6.4 0.00 0.03 0.03 100 1002.7
20260501191404 16 103 1.6 6.4 0.00 0.03 0.03 100 1002.9
20260501191308 16 103 0.0 6.4 0.00 0.03 0.03 100 1002.8
20260501191202 16 103 0.0 6.4 0.00 0.03 0.03 100 1002.8
20260501191102 16 104 0.0 6.4 0.00 0.03 0.03 100 1002.8
20260501191002 16 104 1.6 6.4 0.00 0.03 0.03 100 1002.7
20260501190902 16 104 1.6 6.4 0.00 0.03 0.03 100 1002.8
20260501190801 16 120 1.6 4.8 0.00 0.03 0.03 100 1002.7
20260501190702 16 154 1.6 8.0 0.00 0.03 0.03 100 1002.6
20260501190602 16 154 1.6 8.0 0.00 0.03 0.03 100 1002.5
20260501190503 16 80 1.6 8.0 0.00 0.03 0.03 100 1002.3
20260501190403 16 73 1.6 8.0 0.00 0.03 0.03 100 1002.2
20260501190303 16 73 1.6 8.0 0.00 0.03 0.03 100 1002.1
20260501190204 16 61 1.6 8.0 0.00 0.03 0.03 100 1002.1
20260501190104 16 55 1.6 8.0 0.00 0.03 0.03 100 1002.1
20260501190003 16 42 1.6 8.0 0.00 0.03 0.03 100 1002.0
20260501185903 16 82 1.6 8.0 0.00 0.03 0.03 100 1002.0
20260501185803 16 82 3.2 8.0 0.00 0.03 0.03 100 1001.9
20260501185703 16 128 1.6 4.8 0.00 0.03 0.03 100 1001.9
20260501185604 16 128 3.2 6.4 0.00 0.03 0.03 100 1001.8
20260501185504 16 82 3.2 6.4 0.00 0.03 0.03 100 1001.8
20260501185402 16 16 1.6 6.4 0.00 0.03 0.03 100 1001.8
20260501185305 16 38 1.6 6.4 0.00 0.03 0.03 100 1001.9
20260501185202 16 285 1.6 6.4 0.00 0.03 0.03 100 1001.8
20260501185102 16 285 1.6 6.4 0.00 0.03 0.03 100 1001.7
20260501185004 16 283 1.6 6.4 0.00 0.03 0.03 100 1001.7
20260501184903 16 73 1.6 6.4 0.00 0.03 0.03 100 1001.6
20260501184802 16 73 3.2 6.4 0.00 0.03 0.03 100 1001.6
20260501184702 16 90 3.2 6.4 0.00 0.03 0.03 100 1001.4
20260501184602 16 358 3.2 6.4 0.00 0.03 0.03 100 1001.3
20260501184502 16 75 3.2 4.8 0.00 0.03 0.03 100 1001.4
20260501184403 16 89 1.6 4.8 0.00 0.03 0.03 100 1001.4
20260501184304 16 266 1.6 3.2 0.00 0.03 0.03 100 1001.5
20260501184202 16 265 1.6 3.2 0.00 0.03 0.03 100 1001.5
20260501184102 16 292 3.2 3.2 0.00 0.03 0.03 100 1001.6
20260501184004 16 286 0.0 3.2 0.00 0.03 0.03 100 1001.6
20260501183904 16 286 0.0 3.2 0.00 0.03 0.03 100 1001.7
20260501183804 16 286 0.0 3.2 0.00 0.03 0.03 100 1001.8
20260501183703 16 286 0.0 4.8 0.00 0.03 0.03 100 1001.8
20260501183603 16 286 0.0 4.8 0.00 0.03 0.03 100 1001.9
20260501183504 16 286 0.0 4.8 0.00 0.03 0.03 100 1002.0
20260501183405 16 286 0.0 4.8 0.00 0.03 0.03 100 1002.0
20260501183258 16 286 0.0 8.0 0.00 0.03 0.03 100 1002.0
20260501183206 16 293 0.0 8.0 0.00 0.03 0.03 100 1002.1
20260501183056 16 293 0.0 8.0 0.00 0.03 0.03 100 1002.0
20260501182956 16 138 0.0 8.0 0.00 0.03 0.03 100 1001.9
20260501182857 16 145 1.6 8.0 0.00 0.03 0.03 100 1001.9
20260501182758 16 145 1.6 8.0 0.00 0.03 0.03 100 1001.8
20260501182657 16 94 1.6 8.0 0.00 0.03 0.03 100 1001.9
20260501182557 16 94 1.6 8.0 0.00 0.03 0.03 100 1001.7
20260501182458 16 109 3.2 8.0 0.00 0.03 0.03 100 1001.7
20260501182357 16 118 3.2 8.0 0.00 0.03 0.03 100 1001.7
20260501182257 16 312 1.6 11.3 0.00 0.03 0.03 100 1001.6
20260501182157 16 76 1.6 11.3 0.00 0.03 0.03 100 1001.5
20260501182058 16 30 1.6 11.3 0.00 0.03 0.03 100 1001.3
20260501181957 16 6 1.6 11.3 0.00 0.03 0.03 100 1001.2
20260501181856 16 145 1.6 11.3 0.00 0.03 0.03 100 1001.1
20260501181756 16 148 0.0 11.3 0.00 0.03 0.03 100 1001.0
20260501181656 16 145 1.6 11.3 0.00 0.03 0.03 100 1001.0
20260501181559 16 145 3.2 11.3 0.00 0.03 0.03 100 1000.9
20260501181456 16 147 4.8 11.3 0.00 0.03 0.03 100 1001.0
20260501181357 16 109 3.2 11.3 0.00 0.03 0.03 100 1001.0
20260501181256 16 109 1.6 8.0 0.00 0.03 0.03 100 1001.1
20260501181158 16 41 1.6 9.7 0.00 0.03 0.03 100 1001.0
20260501181057 16 41 3.2 9.7 0.00 0.03 0.03 100 1001.0
20260501180957 16 27 3.2 9.7 0.00 0.03 0.03 100 1000.8
20260501180857 16 279 3.2 11.3 0.00 0.03 0.03 100 1000.6
20260501180757 16 86 4.8 11.3 0.00 0.03 0.03 100 1000.4
20260501180658 16 80 3.2 11.3 0.00 0.03 0.03 100 1000.2
20260501180556 16 0 1.6 11.3 0.00 0.03 0.03 100 999.9
20260501180456 16 32 1.6 11.3 0.00 0.03 0.03 100 999.7
20260501180357 16 31 3.2 11.3 0.00 0.03 0.03 100 999.6
20260501180257 16 93 3.2 11.3 0.00 0.03 0.03 100 999.8
20260501180156 16 86 1.6 11.3 0.00 0.03 0.03 100 1000.0
20260501180056 16 85 6.4 11.3 0.00 0.03 0.03 100 1000.1
20260501175958 16 128 6.4 11.3 0.00 0.03 0.03 100 1000.2
20260501175857 16 87 1.6 9.7 0.00 0.03 0.03 100 1000.3
20260501175758 16 127 1.6 9.7 0.00 0.03 0.03 100 1000.4
20260501175656 16 114 3.2 9.7 0.00 0.03 0.03 100 1000.6
20260501175556 16 44 3.2 9.7 0.00 0.03 0.03 100 1000.7
20260501175457 16 90 3.2 16.1 0.00 0.03 0.03 100 1000.9
20260501175358 16 78 3.2 16.1 0.00 0.03 0.03 100 1000.9
20260501175258 16 85 1.6 16.1 0.00 0.03 0.03 100 1000.9
20260501175158 16 86 1.6 16.1 0.00 0.03 0.03 100 1000.7
20260501175057 16 89 4.8 16.1 0.00 0.03 0.03 100 1000.4
20260501174955 16 13 4.8 16.1 0.00 0.03 0.03 100 999.8
20260501174857 16 78 3.2 16.1 0.00 0.03 0.03 100 999.4
20260501174756 16 62 4.8 16.1 0.00 0.03 0.03 100 999.2
20260501174655 16 82 6.4 16.1 0.00 0.03 0.03 100 999.4
20260501174557 16 75 6.4 16.1 0.00 0.03 0.03 100 1000.1
20260501174457 16 76 3.2 14.5 0.00 0.03 0.03 100 1000.8
20260501174356 16 78 1.6 6.4 0.00 0.03 0.03 100 1001.2
20260501174257 16 142 3.2 6.4 0.00 0.03 0.03 100 1001.2
20260501174156 16 0 3.2 6.4 0.00 0.03 0.03 100 1001.2
20260501174056 16 138 1.6 4.8 0.00 0.03 0.03 100 1001.4
20260501173957 16 131 3.2 4.8 0.00 0.03 0.03 100 1001.7
20260501173855 16 169 3.2 6.4 0.00 0.03 0.03 100 1002.2
20260501173756 16 171 3.2 6.4 0.00 0.03 0.03 100 1002.5
20260501173655 16 248 3.2 6.4 0.00 0.03 0.03 100 1002.6
20260501173555 16 6 1.6 6.4 0.00 0.03 0.03 100 1002.8
20260501173457 16 80 0.0 6.4 0.00 0.03 0.03 100 1002.8
20260501173357 16 80 0.0 6.4 0.00 0.03 0.03 100 1002.8
20260501173256 16 80 1.6 6.4 0.00 0.03 0.03 100 1002.8
20260501173156 16 71 1.6 6.4 0.00 0.03 0.03 100 1002.8
20260501173055 16 71 3.2 6.4 0.00 0.03 0.03 100 1002.9
20260501172955 16 65 1.6 6.4 0.00 0.03 0.03 100 1003.1
20260501172856 16 111 1.6 4.8 0.00 0.03 0.03 100 1003.2
20260501172757 16 343 1.6 4.8 0.00 0.03 0.03 100 1003.2
20260501172657 16 354 1.6 4.8 0.00 0.03 0.03 100 1003.2
20260501172555 16 157 1.6 4.8 0.00 0.03 0.03 100 1003.1
20260501172456 16 59 1.6 4.8 0.00 0.03 0.03 100 1003.2
20260501172355 16 75 1.6 4.8 0.00 0.03 0.03 100 1003.3
20260501172255 16 75 3.2 4.8 0.00 0.03 0.03 100 1003.4
20260501172156 16 32 1.6 4.8 0.00 0.03 0.03 100 1003.5
20260501172055 16 59 1.6 4.8 0.00 0.03 0.03 100 1003.7
20260501171956 16 87 1.6 4.8 0.00 0.03 0.03 100 1003.8
20260501171857 16 148 1.6 4.8 0.00 0.03 0.03 100 1004.0
20260501171757 16 72 1.6 4.8 0.00 0.03 0.03 100 1004.0
20260501171655 16 72 1.6 4.8 0.00 0.03 0.03 100 1004.0
20260501171555 16 72 1.6 4.8 0.00 0.03 0.03 100 1004.0
20260501171455 16 148 1.6 4.8 0.00 0.03 0.03 100 1004.0
20260501171357 16 219 1.6 4.8 0.00 0.03 0.03 100 1004.0
20260501171257 16 219 0.0 4.8 0.00 0.03 0.03 100 1004.0
20260501171154 16 219 1.6 6.4 0.00 0.03 0.03 100 1004.0
20260501171057 16 219 1.6 8.0 0.00 0.03 0.03 100 1003.9
20260501170957 16 114 1.6 8.0 0.00 0.03 0.03 100 1003.8
20260501170856 16 116 1.6 8.0 0.00 0.03 0.03 100 1003.7
20260501170755 16 72 1.6 8.0 0.00 0.03 0.03 100 1003.5
20260501170656 16 85 3.2 8.0 0.00 0.03 0.03 100 1003.5
20260501170556 16 314 1.6 8.0 0.00 0.03 0.03 100 1003.6
20260501170456 16 86 1.6 8.0 0.00 0.03 0.03 100 1003.6
20260501170356 16 92 3.2 8.0 0.00 0.03 0.03 100 1003.7
20260501170255 16 92 4.8 8.0 0.00 0.03 0.03 100 1003.8
20260501170154 16 86 3.2 8.0 0.00 0.03 0.03 100 1003.9
20260501170054 16 79 3.2 4.8 0.00 0.03 0.03 100 1004.0
20260501165955 16 75 1.6 4.8 0.00 0.03 0.03 100 1004.0
20260501165856 16 97 1.6 4.8 0.00 0.03 0.03 100 1004.0
20260501165756 16 145 1.6 6.4 0.00 0.03 0.03 100 1004.0
20260501165654 16 80 1.6 6.4 0.00 0.03 0.03 100 1004.0
20260501165555 16 80 1.6 6.4 0.00 0.03 0.03 100 1004.0
20260501165455 16 20 1.6 6.4 0.00 0.03 0.03 100 1004.1
20260501165359 16 17 1.6 6.4 0.00 0.03 0.03 100 1004.2
20260501165255 16 337 3.2 6.4 0.00 0.03 0.03 100 1004.1
20260501165154 16 337 3.2 8.0 0.00 0.03 0.03 100 1004.0
20260501165054 16 113 3.2 8.0 0.00 0.03 0.03 100 1003.7
20260501164954 16 7 1.6 8.0 0.00 0.03 0.03 100 1003.4
20260501164855 16 96 3.2 8.0 0.00 0.03 0.03 100 1003.3
20260501164754 16 90 1.6 8.0 0.00 0.03 0.03 100 1003.2
20260501164655 16 68 3.2 8.0 0.00 0.03 0.03 100 1003.4
20260501164557 16 68 3.2 8.0 0.00 0.03 0.03 100 1003.5
20260501164456 16 59 3.2 8.0 0.00 0.03 0.03 100 1003.5
20260501164356 16 55 4.8 8.0 0.00 0.03 0.03 100 1003.6
20260501164257 16 69 3.2 8.0 0.00 0.03 0.03 100 1003.7
20260501164156 16 14 1.6 8.0 0.00 0.03 0.03 100 1003.7
20260501164055 16 66 3.2 8.0 0.00 0.03 0.03 100 1003.7
20260501163954 16 75 3.2 8.0 0.00 0.03 0.03 100 1003.9
20260501163855 16 103 1.6 8.0 0.00 0.03 0.03 100 1003.9
20260501163755 16 85 3.2 8.0 0.00 0.03 0.03 100 1004.0
20260501163655 16 58 1.6 8.0 0.00 0.03 0.03 100 1004.1
20260501163556 16 72 1.6 8.0 0.00 0.03 0.03 100 1004.2
20260501163454 16 72 3.2 8.0 0.00 0.03 0.03 100 1004.3
20260501163356 16 35 3.2 8.0 0.00 0.03 0.03 100 1004.3
20260501163254 16 120 3.2 8.0 0.00 0.03 0.03 100 1004.3
20260501163154 16 86 1.6 8.0 0.00 0.03 0.03 100 1004.3
20260501163055 16 75 1.6 8.0 0.00 0.03 0.03 100 1004.2
20260501162955 16 121 1.6 6.4 0.00 0.03 0.03 100 1004.2
20260501162854 16 345 1.6 6.4 0.00 0.03 0.03 100 1004.2
20260501162753 16 344 1.6 6.4 0.00 0.03 0.03 100 1004.2
20260501162655 16 343 1.6 8.0 0.00 0.03 0.03 100 1004.3
20260501162555 16 259 1.6 8.0 0.00 0.03 0.03 100 1004.3
20260501162455 16 25 0.0 11.3 0.00 0.03 0.03 100 1004.4
20260501162355 16 23 3.2 11.3 0.00 0.03 0.03 100 1004.4
20260501162254 16 90 3.2 11.3 0.00 0.03 0.03 100 1004.5
20260501162153 16 99 1.6 11.3 0.00 0.03 0.03 100 1004.5
20260501162054 16 89 3.2 11.3 0.00 0.03 0.03 100 1004.5
20260501161957 16 89 3.2 11.3 0.00 0.03 0.03 100 1004.6
20260501161853 16 38 3.2 11.3 0.00 0.03 0.03 100 1004.7
20260501161755 16 96 4.8 11.3 0.00 0.03 0.03 100 1004.7
20260501161654 16 23 3.2 11.3 0.00 0.03 0.03 100 1004.9
20260501161555 16 58 3.2 11.3 0.00 0.03 0.03 100 1004.9
20260501161453 16 93 3.2 11.3 0.00 0.03 0.03 100 1004.9
20260501161353 16 92 3.2 11.3 0.00 0.03 0.03 100 1005.0
20260501161254 16 63 1.6 11.3 0.00 0.03 0.03 100 1005.0
20260501161153 16 111 1.6 11.3 0.00 0.03 0.03 100 1005.0
20260501161055 16 72 0.0 11.3 0.00 0.03 0.03 100 1004.9
20260501160953 16 72 1.6 11.3 0.00 0.03 0.03 100 1004.9
20260501160853 16 71 4.8 11.3 0.00 0.03 0.03 100 1004.9
20260501160753 16 93 3.2 11.3 0.00 0.03 0.03 100 1004.9
20260501160653 16 24 3.2 9.7 0.00 0.03 0.03 100 1004.9
20260501160553 16 48 3.2 9.7 0.00 0.03 0.03 100 1005.0
20260501160455 16 28 3.2 9.7 0.00 0.03 0.03 100 1005.0
20260501160355 16 336 3.2 9.7 0.00 0.03 0.03 100 1005.1
20260501160253 16 68 3.2 9.7 0.00 0.03 0.03 100 1005.1
20260501160153 16 38 1.6 9.7 0.00 0.03 0.03 100 1005.2
20260501160055 16 80 1.6 9.7 0.00 0.03 0.03 100 1005.2
20260501155954 16 10 3.2 9.7 0.00 0.03 0.03 100 1005.3
20260501155854 16 80 3.2 9.7 0.00 0.03 0.03 100 1005.2
20260501155755 16 99 3.2 9.7 0.00 0.03 0.03 100 1005.2
20260501155659 16 94 4.8 8.0 0.00 0.03 0.03 100 1005.3
20260501155556 16 82 3.2 8.0 0.00 0.03 0.03 100 1005.3
20260501155455 16 82 1.6 6.4 0.00 0.03 0.03 100 1005.3
20260501155406 16 93 0.0 4.8 0.00 0.03 0.03 100 1005.4
20260501155358 16 66 3.2 6.4 0.00 0.03 0.03 100 1005.4
20260501155339 16 62 1.6 6.4 0.00 0.03 0.03 100 1005.4
20260501155318 16 65 1.6 4.8 0.00 0.03 0.03 100 1005.4